Weather History for Cape Girardeau, MO

Change the Weather History Date:

Tuesday, May 21, 2013

  Actual Average Record
Temperature  
Mean Temperature 72 °F 68 °F  
Max Temperature 79 °F 79 °F 95 °F (1987)
Min Temperature 64 °F 57 °F 43 °F (1968)
Degree Days  
Heating Degree Days 0 2  
Month to date heating degree days 83 59  
Since 1 July heating degree days 4349 4377  
Cooling Degree Days 7 5  
Month to date cooling degree days 75 64  
Year to date cooling degree days 100 95  
Growing Degree Days 22 (Base 50)    
Moisture  
Dew Point 64 °F    
Average Humidity 81    
Maximum Humidity 93    
Minimum Humidity 69    
Precipitation  
Precipitation 0.21 in 0.17 in 1.93 in (1990)
Month to date precipitation 2.25 3.94  
Year to date precipitation 15.07 19.58  
Sea Level Pressure  
Sea Level Pressure 29.82 in    
Wind  
Wind Speed 12 mph (SSW)    
Max Wind Speed 33 mph    
Max Gust Speed 39 mph    
Visibility 9 miles    
Events Rain , Thunderstorm    
T = Trace of Precipitation, MM = Missing Value Source: NWS Daily Summary

Daily Weather History Graph

Daily Weather History Graph

Search for Another Location

Airport:

Trip Planner

Search our weather history database for the weather conditions in past years. The results will help you decide how hot, cold, wet, or windy it might be!

Date:

Astronomy

May. 21, 2013 Rise Set
Actual Time 5:45 AM CDT 8:05 PM CDT
Civil Twilight 5:15 AM CDT 8:34 PM CDT
Nautical Twilight 4:39 AM CDT 9:11 PM CDT
Astronomical Twilight 3:59 AM CDT 9:51 PM CDT
Moon 4:23 PM CDT (5/21) 3:07 AM CDT (5/21)
Length of Visible Light 15h 19m
Length of Day
14h 20m
Waxing Gibbous, 84% of the Moon is Illuminated
May 21
Waxing Gibbous
May 24
Full
May 31
Last Quarter
Jun 8
New
Jun 16
First Quarter

Hourly Weather History & Observations

Time (CDT) Temp. Dew Point Humidity Pressure Visibility Wind Dir Wind Speed Gust Speed Precip Events Conditions
12:53 AM 79.0 °F 66.9 °F 66% 29.81 in 10.0 mi South 11.5 mph 20.7 mph N/A   Clear
1:36 AM 78.8 °F 68.0 °F 69% 29.81 in 10.0 mi South 13.8 mph 20.7 mph N/A Thunderstorm Scattered Clouds
1:47 AM 73.4 °F 60.8 °F 65% 29.85 in 10.0 mi WNW 23.0 mph 39.1 mph N/A Thunderstorm Mostly Cloudy
1:53 AM 69.1 °F 62.1 °F 78% 29.86 in 10.0 mi West 17.3 mph 32.2 mph N/A Thunderstorm Mostly Cloudy
2:00 AM 68.0 °F 62.6 °F 83% 29.86 in 10.0 mi West 11.5 mph 23.0 mph N/A Thunderstorm Mostly Cloudy
2:30 AM 66.2 °F 64.4 °F 94% 29.87 in 1.8 mi West 19.6 mph 31.1 mph 0.13 in Rain , Thunderstorm Heavy Rain
2:39 AM 66.2 °F 64.4 °F 94% 29.90 in 3.0 mi WSW 16.1 mph 24.2 mph 0.16 in Rain , Thunderstorm Thunderstorms and Rain
2:53 AM 66.0 °F 63.0 °F 90% 29.88 in 8.0 mi WSW 11.5 mph 21.9 mph 0.17 in Rain , Thunderstorm Light Thunderstorms and Rain
3:08 AM 66.2 °F 62.6 °F 88% 29.87 in 10.0 mi West 13.8 mph - 0.00 in Rain Light Rain
3:20 AM 66.2 °F 62.6 °F 88% 29.89 in 10.0 mi West 10.4 mph - 0.00 in Rain , Thunderstorm Light Rain
3:35 AM 66.2 °F 62.6 °F 88% 29.88 in 7.0 mi SW 5.8 mph - 0.01 in Rain Light Rain
3:53 AM 64.9 °F 63.0 °F 93% 29.81 in 10.0 mi East 5.8 mph - 0.02 in Rain Light Rain
4:53 AM 64.0 °F 62.1 °F 93% 29.82 in 10.0 mi SSE 6.9 mph - 0.00 in   Clear
5:53 AM 64.0 °F 62.1 °F 93% 29.83 in 10.0 mi SSE 8.1 mph - N/A   Clear
6:53 AM 66.0 °F 63.0 °F 90% 29.85 in 10.0 mi SE 13.8 mph - N/A   Clear
7:53 AM 69.1 °F 63.0 °F 81% 29.85 in 10.0 mi SW 16.1 mph 20.7 mph N/A   Clear
8:53 AM 69.1 °F 64.0 °F 84% 29.90 in 10.0 mi SSW 17.3 mph 26.5 mph N/A   Clear
9:53 AM 66.9 °F 63.0 °F 87% 29.83 in 10.0 mi South 12.7 mph 21.9 mph 0.00 in Rain Light Rain
10:50 AM 69.8 °F 64.4 °F 83% 29.85 in 10.0 mi SSW 9.2 mph 25.3 mph 0.00 in   Partly Cloudy
10:53 AM 69.1 °F 64.0 °F 84% 29.84 in 10.0 mi South 11.5 mph 25.3 mph 0.00 in   Partly Cloudy
11:53 AM 73.0 °F 64.0 °F 73% 29.87 in 10.0 mi SSW 13.8 mph 18.4 mph N/A   Clear
12:53 PM 75.0 °F 66.0 °F 73% 29.86 in 10.0 mi SSW 12.7 mph 23.0 mph N/A   Clear
1:53 PM 75.0 °F 64.9 °F 71% 29.83 in 10.0 mi SSW 9.2 mph - N/A   Clear
2:53 PM 73.0 °F 64.9 °F 76% 29.83 in 10.0 mi South 10.4 mph - N/A   Clear
3:53 PM 75.9 °F 66.9 °F 74% 29.82 in 10.0 mi WSW 10.4 mph - N/A   Mostly Cloudy
4:53 PM 72.0 °F 64.0 °F 76% 29.81 in 10.0 mi West 11.5 mph - N/A   Mostly Cloudy
5:12 PM 69.8 °F 64.4 °F 83% 29.82 in 9.0 mi SW 9.2 mph - 0.00 in Rain , Thunderstorm Light Thunderstorms and Rain
5:53 PM 66.9 °F 64.9 °F 93% 29.75 in 8.0 mi SE 8.1 mph - 0.00 in Rain , Thunderstorm Light Thunderstorms and Rain
5:57 PM 66.2 °F 64.4 °F 94% 29.75 in 9.0 mi SE 9.2 mph - 0.00 in Rain , Thunderstorm Light Rain
6:18 PM 66.2 °F 64.4 °F 94% 29.73 in 10.0 mi SE 13.8 mph - 0.00 in Rain Light Rain
6:53 PM 66.9 °F 64.9 °F 93% 29.73 in 10.0 mi SSE 13.8 mph 20.7 mph 0.01 in Rain Light Rain
7:53 PM 66.0 °F 64.0 °F 93% 29.74 in 10.0 mi SSE 19.6 mph 29.9 mph 0.01 in Rain Light Rain
8:10 PM 66.2 °F 64.4 °F 94% 29.80 in 10.0 mi West 8.1 mph - 0.00 in   Scattered Clouds
8:20 PM 66.2 °F 64.4 °F 94% 29.82 in 10.0 mi West 9.2 mph - 0.00 in   Mostly Cloudy
8:31 PM 66.2 °F 64.4 °F 94% 29.81 in 10.0 mi West 9.2 mph - 0.00 in   Overcast
8:53 PM 66.0 °F 64.9 °F 96% 29.81 in 10.0 mi WSW 9.2 mph - 0.00 in   Overcast
9:05 PM 66.2 °F 64.4 °F 94% 29.82 in 10.0 mi WSW 9.2 mph - N/A   Overcast
9:35 PM 66.2 °F 64.4 °F 94% 29.80 in 10.0 mi SSW 8.1 mph - 0.00 in   Overcast
9:53 PM 66.0 °F 64.0 °F 93% 29.78 in 10.0 mi SSW 8.1 mph - 0.00 in   Mostly Cloudy
10:00 PM 66.2 °F 64.4 °F 94% 29.79 in 10.0 mi South 6.9 mph - N/A   Scattered Clouds
10:53 PM 66.0 °F 63.0 °F 90% 29.78 in 10.0 mi SSE 9.2 mph - N/A   Clear
11:53 PM 66.0 °F 63.0 °F 90% 29.78 in 10.0 mi South 15.0 mph 20.7 mph N/A   Clear